Tracking 28920 objects as of 27-May-2024
HD Live streaming from Space Station
objects crossing your sky now

OBJECT A

Track OBJECT A now!
10-day predictions


NORAD ID: 49003
Int'l Code: 2021-062A
Perigee: 519.8 km
Apogee: 553.3 km
Inclination: 97.6 °
Period: 95.2 minutes
Semi major axis: 6907 km
RCS: Unknown
Launch date: July 3, 2021
Source: People's Republic of China (PRC)
Launch site: Taiyaun Space Center, China (TSC)
Your satellite tracking list
Your tracking list is empty




NASA's NSSDC Master Catalog

Two Line Element Set (TLE):
1 49003U 21061A   24147.86075239  .00005098  00000-0  29689-3 0  9993
2 49003  97.5937 221.6560 0024259 195.1127 164.9381 15.12219590159864
Source of the keplerian elements: AFSPC